Location: Contre
(49.7477°N, 2.0963°E)
Time: 08:01:34
(UTC+00:00)

ATLAS 5 CENTAUR R/B - Pass Details

Date: 03 February 2023
Orbit: 460 x 1178 km, 63.3° (Epoch: 24 March)

Event Time Altitude Azimuth Distance (km) Brightness Sun altitude
Rises 20:17:00 0° 316° (NW) 2,865 5.8 -33.5°
Reaches altitude 10° 20:19:31 10° 331° (NNW) 2,069 4.7 -33.9°
Enters shadow 20:20:29 14° 341° (NNW) 1,827 4.3 -34.1°
